Weather in Berdsk

Russia / Novosibirsk Oblast     54°45′29″N   83°06′25″E
temp.,
°C
wind,
m/s
gust,
m/s
humid.,
%
clouds,
%
prec.,
mm/h
press.,
hPa
HPBL,
m
7 march, sun
sun701:00−3sw101887100 0.0 1011629
04:00−3w61389100 1.2 1012657
07:00−9wsw5988100 1.3 1015143
10:00−11wsw4593100 0.0 101693
13:00−9wsw5787100 0.0 1019328
16:00−7wsw488549 0.0 1020285
19:00−9sw338448 0.0 102221
22:00−11s3483100 0.0 102224
8 march, mon
mon801:00−12sse347589 0.0 102127
04:00−9sse699299 0.0 1018138
07:00−6sse71292100 0.0 1016259
10:00−5s71385100 0.0 1013358
13:00−2s91481100 0.0 1010569
16:000ssw91678100 0.0 1008690
19:00−2sw81683100 0.0 1008652
22:00−1wsw91496100 0.4 1010633
9 march, tue
tue901:00−11w579193 0.6 1016113
04:00−15wsw569549 0.0 102080
07:00−15sw6109470 0.0 1023144
10:00−15sw510886 0.0 1025211
13:00−9sw7127832 0.0 1025559
16:00−7ssw6108024 0.0 1024469
19:00−10ssw568541 0.0 102390
22:00−11s578892 0.0 1022107
10 march, wed
wed1001:00−12s569272 0.0 102160
04:00−13s459425 0.0 101937
07:00−14s349643 0.0 101924
10:00−11s349480 0.0 101852
13:00−6ssw358990 0.0 1017310
16:00−3s468796 0.0 1014438
19:00−3se579194 0.0 1010110
22:000sse71490100 0.0 1006460
11 march, thu
thu1101:00+1s91881100 0.0 1000603
04:00+1ssw101898100 0.9 998562
07:00−7wsw11198699 1.3 1003647
10:00−9wsw91687100 0.1 1010644
13:00−6sw91485100 0.1 1013792
16:00−6sw81286100 0.1 1015976
19:00−7sw6128699 0.1 1016312
22:00−10ssw598965 0.0 1018165